Flag for U.S.A. Weather past 2 weeks in South Bend, Indiana, U.S.A.

Now
32 °F

Overcast.


Feels Like: 29 °F
Forecast: 23 / 35 °F
Wind: 3 mph from Northeast

Location: Michiana Regional Airport

Current Time: Dec 19, 2014 at 9:35:21 PM

Latest Report: Dec 19, 2014 at 8:54 PM


Visibility: 10 mi

Pressure: 30.30 "Hg

Humidity: 75%

Dew point: 25 °F

Location of South BendLocation

Historic Weather in South Bend — Graph

°F

South Bend temperature yesterday

Maximum temperature yesterday: 29 °F (at 12:54 AM)
Minimum temperature yesterday: 27 °F (at 7:54 AM)
Average temperature yesterday: 28 °F

Past Weeks' High & Low Weather Summary

 TemperatureHumidityPressure
High54 °F (Dec 14, 2:54 PM)97% (Dec 8, 6:01 PM)30.70 "Hg (Dec 8, 6:01 PM)
Low21 °F (Dec 11, 2:54 AM)55% (Dec 7, 3:54 PM)29.66 "Hg (Dec 16, 5:54 AM)
Average35 °F82%30.22 "Hg
* Reported Dec 4 7:54 PM — Dec 19 7:54 PM, South Bend, Weather by CustomWeather, © 2014

Note: Actual official high and low records may vary slightly from our data, if they occured in-between our weather recording intervals... More about our weather records

Advertising

South Bend weather history for previous 24 hours

 ConditionsComfort  
Time TempWeatherWind HumidityBarometerVisibility
7:54 PM
Dec 19
32 °FOvercast.No wind79%30.31 "Hg10 mi
6:54 PM32 °FOvercast.No wind82%30.32 "Hg10 mi
5:54 PM32 °FOvercast.8 mph82%30.35 "Hg10 mi
4:54 PM33 °FOvercast.8 mph75%30.31 "Hg10 mi
3:54 PM34 °FOvercast.3 mph73%30.27 "Hg10 mi
3:01 PM33 °FOvercast.6 mph72%30.25 "Hg10 mi
1:54 PM35 °FOvercast.6 mph67%30.28 "Hg10 mi
12:54 PM34 °FMostly cloudy.No wind67%30.29 "Hg10 mi
11:54 AM33 °FMostly cloudy.3 mph70%30.31 "Hg10 mi
10:54 AM32 °FOvercast.3 mph73%30.32 "Hg10 mi
9:54 AM31 °FOvercast.3 mph76%30.30 "Hg10 mi
7:54 AM29 °FOvercast.No wind85%30.29 "Hg9 mi
6:54 AM28 °FOvercast.No wind85%30.28 "Hg8 mi
5:54 AM28 °FOvercast.5 mph85%30.27 "Hg8 mi
4:54 AM28 °FMostly cloudy.5 mph81%30.27 "Hg8 mi
3:54 AM27 °FOvercast.6 mph81%30.27 "Hg8 mi
2:54 AM27 °FMostly cloudy.9 mph85%30.27 "Hg7 mi
1:54 AM27 °FOvercast.8 mph81%30.26 "Hg7 mi
12:54 AM27 °FOvercast.7 mph81%30.25 "Hg6 mi
11:54 PM
Dec 18
28 °FOvercast.10 mph72%30.26 "Hg10 mi
10:54 PM28 °FMostly cloudy.9 mph72%30.26 "Hg10 mi
9:54 PM28 °FMostly cloudy.8 mph72%30.27 "Hg10 mi
Weather by CustomWeather, © 2014

See weather overviewHow to use our weather pages